IZ1PKI Weather Reports


Display with metric or nautical units.
time (UTC)temp
F
wind
direction
speed
MPH
gust
MPH
rain 1hr
in
rain 24hr
in
rain mn
in
humidity
%
barometer
mb
20260505225318 59 0 0.0 0.0 0.00 1.42 0.00 89 1013.8
20260505224821 59 0 0.0 0.0 0.00 1.42 0.00 89 1013.9
20260505224321 59 0 0.0 4.0 0.00 1.42 0.00 89 1013.9
20260505223818 59 0 0.0 3.0 0.00 1.42 0.00 89 1014.1
20260505223321 59 0 0.0 3.0 0.00 1.42 0.00 89 1014.2
20260505222827 60 0 0.0 3.0 0.00 1.42 0.00 89 1014.1
20260505222318 60 0 1.0 4.0 0.00 1.42 0.00 89 1014.2
20260505221818 60 0 1.0 3.0 0.00 1.42 0.00 89 1014.3
20260505221321 60 0 0.0 1.0 0.00 1.42 0.00 89 1014.2
20260505220824 60 0 0.0 4.0 0.00 1.42 0.00 89 1014.1
20260505220321 60 0 0.0 4.0 0.00 1.42 0.00 89 1014.1
20260505215821 60 0 0.0 3.0 0.00 1.42 0.00 89 1014.2
20260505215318 60 0 1.0 2.0 0.00 1.42 0.00 89 1014.3
20260505214824 60 0 0.0 3.0 0.00 1.42 0.00 89 1014.3
20260505214318 60 0 2.0 2.0 0.00 1.42 0.00 89 1014.5
20260505213818 60 0 0.0 3.0 0.00 1.42 0.00 89 1014.4
20260505213318 60 0 1.0 5.0 0.00 1.42 0.00 89 1014.5
20260505212818 60 0 2.0 4.0 0.00 1.42 0.00 89 1014.5
20260505212321 60 0 2.0 3.0 0.00 1.42 0.00 89 1014.4
20260505211818 60 0 2.0 3.0 0.00 1.42 0.00 89 1014.4
20260505211318 60 0 1.0 3.0 0.00 1.42 0.00 89 1014.4
20260505210824 60 0 1.0 4.0 0.00 1.42 0.00 89 1014.5
20260505210318 60 0 2.0 4.0 0.00 1.42 0.00 89 1014.6
20260505205821 60 0 0.0 5.0 0.00 1.42 0.00 89 1014.6
20260505205321 60 0 1.0 1.0 0.00 1.42 0.00 89 1014.5
20260505204818 60 0 0.0 3.0 0.00 1.42 0.00 89 1014.8
20260505204321 60 0 0.0 4.0 0.00 1.42 0.00 89 1014.8
20260505203818 60 0 2.0 5.0 0.00 1.42 0.00 89 1014.9
20260505203318 60 0 2.0 4.0 0.00 1.42 0.00 89 1014.9
20260505202824 60 0 3.0 5.0 0.00 1.42 0.00 89 1014.8
20260505202321 60 0 1.0 4.0 0.00 1.42 0.00 89 1014.8
20260505201818 60 0 1.0 5.0 0.00 1.42 0.00 89 1014.8
20260505201327 60 0 2.0 4.0 0.00 1.42 0.00 89 1014.8
20260505200818 60 0 3.0 4.0 0.00 1.42 0.00 89 1014.8
20260505200318 60 0 1.0 3.0 0.00 1.42 0.00 89 1014.8
20260505195818 60 0 1.0 3.0 0.00 1.42 0.00 89 1014.8
20260505195318 60 0 1.0 3.0 0.00 1.42 0.00 89 1014.9
20260505194818 60 0 1.0 3.0 0.00 1.42 0.00 89 1014.9
20260505194321 60 0 1.0 5.0 0.00 1.42 0.00 89 1014.9
20260505193818 60 0 3.0 3.0 0.00 1.42 0.00 89 1014.8
20260505193324 60 0 2.0 3.0 0.00 1.42 0.00 89 1014.6
20260505192818 60 0 0.0 5.0 0.00 1.42 0.00 89 1014.7
20260505192318 60 0 4.0 6.0 0.00 1.42 0.00 89 1014.7
20260505191818 60 0 1.0 5.0 0.00 1.42 0.00 89 1014.7
20260505191327 60 0 1.0 5.0 0.00 1.42 0.00 89 1014.7
20260505190818 60 0 1.0 4.0 0.00 1.42 0.00 89 1014.6
20260505190318 60 0 1.0 5.0 0.00 1.42 0.00 89 1014.4
20260505185818 60 0 1.0 4.0 0.00 1.42 0.00 89 1014.5
20260505185321 60 0 3.0 6.0 0.00 1.42 0.00 89 1014.4
20260505184818 60 0 2.0 5.0 0.00 1.42 0.00 89 1014.4
20260505184318 60 0 1.0 6.0 0.00 1.42 0.00 88 1014.5
20260505183821 60 0 2.0 6.0 0.00 1.42 0.00 88 1014.4
20260505183321 60 0 3.0 5.0 0.00 1.42 0.00 88 1014.5
20260505182821 60 0 4.0 6.0 0.00 1.42 0.00 88 1014.6
20260505182324 60 0 4.0 8.0 0.00 1.42 0.00 88 1014.6
20260505181824 60 0 2.0 5.0 0.00 1.42 0.00 88 1014.5
20260505181321 60 0 2.0 5.0 0.00 1.42 0.00 88 1014.5
20260505180821 60 0 1.0 5.0 0.00 1.42 0.00 87 1014.5
20260505180318 60 0 1.0 5.0 0.00 1.42 0.00 87 1014.4
20260505175818 60 0 4.0 8.0 0.00 1.42 0.00 87 1014.4
20260505175318 60 0 0.0 5.0 0.00 1.42 0.00 87 1014.5
20260505174818 60 0 3.0 8.0 0.00 1.42 0.00 86 1014.5
20260505174327 61 0 2.0 4.0 0.00 1.42 0.00 86 1014.4
20260505173824 61 0 2.0 5.0 0.00 1.42 0.00 86 1014.4
20260505173318 61 0 2.0 4.0 0.00 1.42 0.00 87 1014.4
20260505172824 61 0 0.0 5.0 0.00 1.42 0.00 87 1014.3
20260505172327 61 0 4.0 5.0 0.00 1.42 0.00 87 1014.3
20260505171818 61 0 1.0 6.0 0.00 1.42 0.00 87 1014.2
20260505171324 61 0 2.0 6.0 0.00 1.42 0.00 86 1014.3
20260505170818 61 0 2.0 5.0 0.00 1.42 0.00 86 1014.4
20260505170324 61 0 2.0 6.0 0.00 1.42 0.00 86 1014.4
20260505165818 61 0 2.0 6.0 0.00 1.42 0.00 85 1014.4
20260505165318 61 0 5.0 9.0 0.00 1.42 0.00 85 1014.4
20260505164818 62 0 1.0 8.0 0.00 1.42 0.00 84 1014.5
20260505164321 62 0 3.0 6.0 0.00 1.42 0.00 83 1014.5
20260505163818 62 0 3.0 8.0 0.00 1.42 0.00 83 1014.4
20260505163324 62 0 3.0 9.0 0.00 1.42 0.00 83 1014.3
20260505162818 62 0 5.0 6.0 0.00 1.42 0.00 82 1014.4
20260505162327 63 0 4.0 5.0 0.00 1.42 0.00 82 1014.3
20260505161824 63 0 2.0 4.0 0.00 1.42 0.00 81 1014.3
20260505161321 63 0 2.0 5.0 0.00 1.42 0.00 81 1014.3
20260505160821 63 0 1.0 3.0 0.00 1.42 0.00 82 1014.3
20260505160324 63 0 1.0 6.0 0.00 1.42 0.00 82 1014.3
20260505153321 62 0 3.0 8.0 0.00 1.42 0.00 84 1014.4
20260505152821 62 0 3.0 8.0 0.00 1.42 0.00 84 1014.4
20260505152318 62 0 3.0 6.0 0.00 1.42 0.00 84 1014.5
20260505151824 62 0 2.0 6.0 0.00 1.42 0.00 83 1014.7
20260505151324 62 0 3.0 5.0 0.00 1.42 0.00 83 1014.6
20260505150818 62 0 3.0 6.0 0.00 1.42 0.00 83 1014.4
20260505150318 62 0 1.0 9.0 0.00 1.42 0.00 82 1014.5
20260505140321 64 0 5.0 6.0 0.00 1.42 0.00 81 1014.4
20260505124821 64 0 2.0 3.0 0.00 1.42 0.00 79 1014.4
20260505124327 64 0 0.0 3.0 0.00 1.42 0.00 78 1014.4
20260505123821 64 0 0.0 2.0 0.00 1.42 0.00 80 1014.4
20260505123324 63 0 0.0 0.0 0.00 1.42 0.00 80 1014.4
20260505122818 63 0 0.0 1.0 0.00 1.42 0.00 79 1014.5
20260505122318 63 0 0.0 2.0 0.00 1.42 0.00 78 1014.5
20260505121818 63 0 2.0 4.0 0.00 1.42 0.00 78 1014.4
20260505121318 63 0 1.0 4.0 0.00 1.42 0.00 79 1014.4
20260505120821 63 0 0.0 3.0 0.00 1.42 0.00 79 1014.4
20260505120321 63 0 1.0 3.0 0.00 1.42 0.00 79 1014.4
20260505115818 63 0 0.0 3.0 0.00 1.42 0.00 79 1014.5
20260505115321 63 0 3.0 4.0 0.00 1.42 0.00 80 1014.5
20260505114818 63 0 2.0 4.0 0.00 1.42 0.00 79 1014.4
20260505114318 62 0 2.0 3.0 0.00 1.42 0.00 80 1014.4
20260505113818 62 0 0.0 4.0 0.00 1.42 0.00 80 1014.3
20260505113318 62 0 1.0 2.0 0.00 1.42 0.00 81 1014.5
20260505112827 61 0 0.0 5.0 0.00 1.42 0.00 81 1014.6
20260505112318 61 0 2.0 4.0 0.00 1.42 0.00 81 1014.5
20260505111830 60 0 2.0 6.0 0.00 1.42 0.00 81 1014.5
20260505111324 60 0 2.0 8.0 0.00 1.42 0.00 81 1014.5
20260505110817 60 0 2.0 5.0 0.00 1.42 0.00 81 1014.7
20260505110321 59 0 2.0 6.0 0.00 1.42 0.00 81 1014.6
20260505101827 57 0 4.0 12.0 0.01 1.42 0.00 87 1014.6
20260505101318 56 0 4.0 10.0 0.01 1.42 0.00 88 1014.4
20260505100818 56 0 4.0 13.0 0.01 1.42 0.00 88 1014.4
20260505100317 55 0 3.0 12.0 0.01 1.42 0.00 88 1014.7
20260505095827 55 0 6.0 11.0 0.01 1.42 0.00 89 1014.6
20260505095318 55 0 3.0 12.0 0.01 1.42 0.00 88 1014.5
20260505094818 54 0 3.0 15.0 0.01 1.42 0.00 88 1014.5
20260505094317 55 0 3.0 14.0 0.01 1.42 0.00 88 1014.7
20260505093818 55 0 6.0 17.0 0.00 1.41 0.00 87 1014.7
20260505093317 55 0 4.0 16.0 0.00 1.40 0.00 86 1014.8
20260505092818 55 0 5.0 14.0 0.00 1.40 0.00 86 1014.5
20260505092324 55 0 9.0 13.0 0.00 1.40 0.00 86 1014.5
20260505091821 55 0 3.0 10.0 0.00 1.40 0.00 86 1014.3
20260505091318 55 0 9.0 10.0 0.00 1.40 0.00 87 1014.3
20260505090820 56 0 6.0 11.0 0.00 1.40 0.00 87 1014.3
20260505090320 56 0 2.0 12.0 0.00 1.40 0.00 86 1014.4
20260505085818 56 0 4.0 12.0 0.00 1.40 0.00 85 1014.4
20260505085324 56 0 6.0 12.0 0.00 1.40 0.00 85 1014.4
20260505084817 57 0 3.0 10.0 0.00 1.40 0.00 84 1014.3
20260505084318 57 0 2.0 13.0 0.00 1.40 0.00 84 1014.2
20260505083820 57 0 4.0 10.0 0.00 1.40 0.00 84 1014.1
20260505083324 57 0 4.0 9.0 0.00 1.40 0.00 85 1013.9
20260505082817 56 0 4.0 11.0 0.00 1.40 0.00 85 1013.9
20260505082321 56 0 2.0 15.0 0.00 1.40 0.00 85 1014.0
20260505081818 57 0 8.0 11.0 0.00 1.40 0.00 84 1014.1
20260505081324 57 0 3.0 11.0 0.00 1.40 0.00 84 1014.1
20260505080824 57 0 2.0 6.0 0.00 1.40 0.00 83 1014.1
20260505080317 57 0 2.0 8.0 0.00 1.40 0.00 83 1014.0
20260505075818 57 0 6.0 8.0 0.00 1.40 0.00 83 1013.9
20260505075317 57 0 3.0 9.0 0.00 1.40 0.00 83 1013.8
20260505074817 57 0 4.0 10.0 0.00 1.40 0.00 84 1014.1
20260505074321 57 0 1.0 6.0 0.00 1.40 0.00 84 1014.1
20260505073818 57 0 2.0 9.0 0.00 1.40 0.00 85 1014.1
20260505073317 57 0 1.0 6.0 0.00 1.40 0.00 85 1014.3
20260505072818 56 0 2.0 5.0 0.00 1.40 0.00 85 1014.2
20260505072317 56 0 3.0 9.0 0.00 1.40 0.00 85 1014.2
20260505071818 56 0 4.0 12.0 0.01 1.40 0.00 85 1014.3
20260505071318 55 0 5.0 12.0 0.02 1.40 0.00 86 1014.2
20260505070826 55 0 4.0 12.0 0.03 1.40 0.00 86 1014.2
20260505070321 55 0 4.0 13.0 0.05 1.40 0.00 86 1014.1
20260505065821 55 0 3.0 11.0 0.07 1.40 0.00 86 1014.0
20260505065329 55 0 4.0 12.0 0.08 1.40 0.00 86 1014.0
20260505064820 54 0 3.0 10.0 0.12 1.40 0.00 86 1013.9
20260505064317 54 0 2.0 17.0 0.16 1.40 0.00 86 1013.8
20260505063817 54 0 5.0 27.0 0.21 1.40 0.00 86 1013.7
20260505063317 54 0 10.0 24.0 0.25 1.40 0.00 86 1013.6
20260505062817 54 0 14.0 25.0 0.27 1.40 0.00 87 1013.5
20260505062327 54 0 11.0 25.0 0.29 1.40 0.00 87 1013.5
20260505061818 54 0 3.0 25.0 0.33 1.39 0.00 88 1013.5
20260505061317 54 0 5.0 25.0 0.36 1.38 0.00 88 1013.4
20260505060823 54 0 12.0 23.0 0.37 1.37 0.00 87 1013.6
20260505060321 54 0 11.0 18.0 0.37 1.35 0.00 87 1013.4
20260505055827 54 0 4.0 14.0 0.37 1.33 0.00 87 1013.4
20260505055317 55 0 14.0 23.0 0.37 1.32 0.00 86 1013.3
20260505054817 55 0 6.0 20.0 0.36 1.28 0.00 86 1012.8
20260505054318 55 0 11.0 20.0 0.33 1.24 0.00 87 1012.8
20260505053820 54 0 5.0 23.0 0.31 1.19 0.00 88 1013.2
20260505053320 54 0 2.0 15.0 0.33 1.15 0.00 88 1014.0
20260505052818 54 0 9.0 19.0 0.33 1.12 0.00 88 1014.0
20260505052320 54 0 17.0 22.0 0.35 1.10 0.00 89 1013.8
20260505051821 54 0 6.0 15.0 0.36 1.06 0.00 89 1013.6
20260505051324 54 0 8.0 17.0 0.37 1.02 0.00 88 1013.8
20260505050823 54 0 13.0 23.0 0.37 0.99 0.00 88 1013.9
20260505050317 54 0 6.0 23.0 0.44 0.98 0.00 88 1013.8
20260505041317 55 0 4.0 10.0 0.37 0.65 0.00 89 1013.9
20260505040817 55 0 4.0 8.0 0.37 0.62 0.00 89 1013.6
20260505040321 55 0 3.0 8.0 0.31 0.54 0.00 89 1013.8
20260505035823 55 0 0.0 4.0 0.21 0.44 0.00 89 1014.0
20260505035320 55 0 1.0 9.0 0.21 0.43 0.00 89 1013.5
20260505034817 55 0 2.0 9.0 0.21 0.41 0.00 88 1013.5
20260505034321 55 0 2.0 9.0 0.19 0.39 0.00 88 1013.7
20260505033817 55 0 3.0 6.0 0.19 0.38 0.00 88 1013.8
20260505033317 55 0 3.0 5.0 0.20 0.37 0.00 88 1013.9
20260505032820 55 0 0.0 9.0 0.19 0.35 0.00 87 1014.1
20260505032317 56 0 6.0 9.0 0.18 0.33 0.00 87 1014.0
20260505031817 56 0 0.0 6.0 0.16 0.30 0.00 86 1014.2
20260505031323 56 0 3.0 5.0 0.14 0.28 0.00 86 1014.3
20260505030820 56 0 2.0 5.0 0.13 0.25 0.00 86 1014.5
20260505030324 56 0 2.0 4.0 0.11 0.22 0.00 85 1014.6
20260505025817 56 0 3.0 4.0 0.12 0.22 0.00 85 1014.5
20260505025317 56 0 1.0 6.0 0.12 0.22 0.00 85 1014.7
20260505024817 56 0 2.0 5.0 0.11 0.20 0.00 85 1014.8
20260505024320 56 0 2.0 8.0 0.11 0.19 0.00 85 1014.8
20260505023817 56 0 8.0 8.0 0.11 0.18 0.00 85 1014.8
20260505023317 56 0 3.0 3.0 0.11 0.17 0.00 85 1014.9
20260505022820 56 0 3.0 4.0 0.10 0.15 0.00 84 1015.1
20260505022320 57 0 0.0 0.0 0.10 0.14 0.00 85 1015.2
20260505021820 57 0 0.0 3.0 0.10 0.14 0.00 84 1015.2
20260505021321 57 0 3.0 3.0 0.10 0.13 0.00 83 1015.2
20260505020821 57 0 2.0 4.0 0.08 0.11 0.00 83 1015.2
20260505020317 57 0 1.0 3.0 0.08 0.11 0.00 84 1015.2
20260505015817 57 0 2.0 4.0 0.08 0.10 0.00 84 1015.2
20260505015320 57 0 1.0 3.0 0.08 0.09 0.00 84 1015.4
20260505014826 57 0 0.0 1.0 0.08 0.08 0.00 84 1015.5
20260505014318 57 0 0.0 2.0 0.07 0.07 0.00 83 1015.6
20260505013817 58 0 0.0 3.0 0.07 0.07 0.00 84 1015.6
20260505013326 58 0 1.0 2.0 0.06 0.06 0.00 83 1015.6
20260505012817 58 0 0.0 3.0 0.05 0.05 0.00 82 1015.7
20260505012317 58 0 3.0 4.0 0.04 0.04 0.00 82 1015.8
20260505011823 58 0 0.0 0.0 0.03 0.03 0.00 82 1015.7
20260505011323 59 0 0.0 1.0 0.03 0.03 0.00 81 1015.9
20260505010826 59 0 0.0 2.0 0.03 0.03 0.00 80 1016.0
20260505010317 59 0 0.0 2.0 0.02 0.02 0.00 80 1016.2
20260505005823 60 0 0.0 2.0 0.01 0.01 0.00 79 1016.2
20260505005317 60 0 1.0 3.0 0.00 0.00 0.00 78 1016.4
20260505004817 60 0 1.0 2.0 0.00 0.00 0.00 77 1016.5
20260505004317 60 0 1.0 2.0 0.00 0.00 0.00 76 1016.5
20260505003817 60 0 2.0 2.0 0.00 0.00 0.00 76 1016.6
20260505003323 60 0 0.0 2.0 0.00 0.00 0.00 76 1016.7
20260505002820 60 0 1.0 3.0 0.00 0.00 0.00 75 1016.7
20260505002320 60 0 0.0 1.0 0.00 0.00 0.00 75 1016.8
20260505001823 60 0 1.0 3.0 0.00 0.00 0.00 75 1016.9
20260505001320 60 0 0.0 0.0 0.00 0.00 0.00 75 1017.1
20260505000817 60 0 0.0 1.0 0.00 0.00 0.00 76 1017.2
20260505000324 60 0 0.0 3.0 0.00 0.00 0.00 76 1017.2
20260504235817 60 0 0.0 1.0 0.00 0.00 0.00 76 1017.3
20260504235317 60 0 0.0 2.0 0.00 0.00 0.00 76 1017.4
20260504234826 60 0 1.0 2.0 0.00 0.00 0.00 76 1017.4
20260504234317 60 0 0.0 0.0 0.00 0.00 0.00 76 1017.6
20260504233817 60 0 0.0 1.0 0.00 0.00 0.00 76 1017.6
20260504233317 60 0 0.0 3.0 0.00 0.00 0.00 76 1017.7
20260504232817 60 0 1.0 5.0 0.00 0.00 0.00 76 1017.8
20260504232317 60 0 1.0 5.0 0.00 0.00 0.00 76 1017.7
20260504231817 60 0 2.0 3.0 0.00 0.00 0.00 76 1017.8
20260504231320 61 0 1.0 3.0 0.00 0.00 0.00 75 1017.8
20260504230817 61 0 0.0 2.0 0.00 0.00 0.00 75 1017.8
20260504230320 60 0 1.0 3.0 0.00 0.00 0.00 75 1018.0
20260504225823 61 0 1.0 2.0 0.00 0.00 0.00 76 1018.0